[[{"header":{"parameterUnit":"m.s-1","parameterCategory":1,"la1":30.2992,"la2":30.254,"lo1":-89.0895,"lo2":-89.0443,"dy":0.0025,"dx":0.0025,"nx":19,"ny":19,"refTime":"2026-04-29T09:00:00:Z","depth":0,"parameterNumber":2,"parameterNumberName":"U-component_of_WINDS"},"data":[0,0,0,2.9155,2.916,2.9387,2.9388,2.967,2.9673,0,0,0,0,0,0,0,0,0,0,0,2.9081,2.9083,2.9155,2.9161,2.9387,2.9389,2.967,2.9673,0,0,0,0,0,0,0,0,0,0,0,2.908,2.9082,2.9084,2.9161,2.9387,2.9389,2.9669,2.9501,0,0,0,0,0,0,0,0,0,0,2.9282,2.9206,2.9082,2.9084,2.9163,2.9387,2.9389,2.9494,2.9512,2.9563,0,2.9605,0,2.9643,2.9691,2.9692,0,0,0,2.9166,2.9191,2.9258,2.9085,2.9165,2.9387,2.9287,2.9504,2.9525,2.9587,2.9609,2.962,2.9648,2.9693,2.9694,2.9964,2.9965,0,0,2.9154,2.9119,2.9244,2.9271,2.9234,2.9279,2.9294,2.9517,2.9539,2.961,2.9627,2.9652,2.9694,2.9696,2.9963,2.9964,0,0,0,2.9114,2.9109,2.9172,2.926,2.9301,2.9286,2.9302,2.9529,2.9552,2.963,2.9656,2.9696,2.9699,2.9962,2.9964,2.9975,0,0,0,2.9107,2.9086,2.9166,2.9147,2.9297,2.9417,2.9309,2.9536,2.9563,2.9654,2.9696,2.9702,2.9961,2.9963,2.9973,2.9987,0,0,0,2.9069,2.9082,2.9112,2.9144,2.924,2.9415,2.9451,2.9543,2.9579,2.9692,2.9703,2.996,2.9963,2.9971,2.9983,3.0046,0,0,0,2.9019,2.9121,2.9112,2.9237,2.9238,2.942,2.945,2.9588,2.9687,2.9697,2.9961,2.9963,2.997,2.9981,3.0043,3.0091,3.0107,0,0,2.9129,2.9133,2.921,2.9208,2.9382,2.9388,2.9566,2.9691,2.9736,2.9886,2.9893,2.9974,2.9983,3.0045,3.0218,3.0231,0,0,0,2.9233,2.9287,2.9341,2.9432,2.9529,2.9614,2.9715,2.9762,2.9891,2.9805,3.0016,3.0022,3.006,3.0085,3.0096,3.013,2.9974,2.9973,2.9973,2.9337,2.9387,2.9516,2.9593,2.9682,2.9785,2.9862,2.9943,2.997,3.0018,3.0062,3.0161,3.0188,3.0197,3.0232,3.0094,3.0094,3.0094,3.0094,2.9501,2.9584,2.9616,2.9752,2.9805,2.9921,3.0026,3.0041,3.0157,3.0132,3.0168,3.0134,3.0209,3.0243,3.0095,3.0095,3.0095,3.0095,3.0095,2.9572,2.9621,2.9675,2.9811,2.9912,2.9989,3.0098,3.0144,3.0188,3.0224,3.0274,3.0274,3.0278,3.0245,3.0245,3.0246,3.0246,3.0246,3.0246,2.9624,2.9685,2.977,2.9881,2.9946,3.0036,3.0142,3.0208,3.0292,3.0317,3.0317,3.0337,3.0208,3.0173,3.0252,3.0251,3.025,3.025,3.0249,2.9767,2.9742,2.9874,2.9938,3.0073,3.0169,3.0226,3.0355,3.0417,3.0469,3.0483,3.038,3.0389,3.038,3.0351,3.0472,3.0472,3.0472,3.0472,2.9826,2.9835,2.9979,3.0079,3.0182,3.0247,3.0396,3.048,3.0563,3.0604,3.0594,3.0561,3.055,3.0565,3.0553,3.0526,3.0689,3.0689,3.0689,2.9916,2.9937,3.0053,3.0132,3.0241,3.0334,3.0475,3.0589,3.0679,3.0699,3.0637,3.0628,3.0575,3.0555,3.057,3.055,3.0503,0,0]},{"header":{"parameterUnit":"m.s-1","parameterCategory":1,"la1":30.2992,"la2":30.254,"lo1":-89.0895,"lo2":-89.0443,"dy":0.0025,"dx":0.0025,"nx":19,"ny":19,"refTime":"2026-04-29T09:00:00:Z","depth":0,"parameterNumber":3,"parameterNumberName":"V-component_of_WINDS"},"data":[0,0,0,1.558,1.5583,1.5716,1.5717,1.5883,1.5885,0,0,0,0,0,0,0,0,0,0,0,1.5537,1.5538,1.558,1.5583,1.5716,1.5717,1.5883,1.5885,0,0,0,0,0,0,0,0,0,0,0,1.5537,1.5538,1.5539,1.5584,1.5716,1.5717,1.5883,1.5784,0,0,0,0,0,0,0,0,0,0,1.5655,1.5612,1.5537,1.5539,1.5584,1.5716,1.5717,1.5779,1.579,1.5821,0,1.5846,0,1.5868,1.5895,1.5896,0,0,0,1.5586,1.5602,1.5642,1.5539,1.5586,1.5716,1.5657,1.5785,1.5797,1.5835,1.5849,1.5855,1.5871,1.5896,1.5897,1.6064,1.6064,0,0,1.5579,1.5559,1.5633,1.5649,1.5627,1.5653,1.5661,1.5793,1.5807,1.5849,1.5859,1.5874,1.5898,1.5899,1.6063,1.6064,0,0,0,1.5556,1.5554,1.559,1.5642,1.5667,1.5656,1.5666,1.5801,1.5814,1.5861,1.5875,1.5898,1.59,1.6063,1.6064,1.6077,0,0,0,1.5551,1.5541,1.5587,1.5576,1.5664,1.5735,1.5671,1.5805,1.582,1.5875,1.5899,1.5902,1.6062,1.6063,1.6075,1.6088,0,0,0,1.553,1.5538,1.5556,1.5575,1.5631,1.5733,1.5754,1.5809,1.5829,1.5896,1.5902,1.6061,1.6063,1.6074,1.6085,1.6127,0,0,0,1.5501,1.5566,1.5556,1.5634,1.563,1.574,1.5754,1.5837,1.5896,1.5899,1.6062,1.6063,1.6073,1.6083,1.6125,1.616,1.6172,0,0,1.5572,1.5574,1.5621,1.5616,1.5723,1.5721,1.5831,1.5903,1.5927,1.6017,1.6022,1.6076,1.6085,1.6127,1.6245,1.6255,0,0,0,1.5637,1.5671,1.5704,1.5759,1.5815,1.5865,1.5923,1.595,1.6027,1.5969,1.6102,1.6108,1.6134,1.6151,1.616,1.6184,1.607,1.607,1.607,1.5711,1.5738,1.5819,1.5863,1.5916,1.5975,1.6021,1.6068,1.608,1.6111,1.6138,1.6206,1.6226,1.6233,1.6257,1.6157,1.6157,1.6157,1.6157,1.5819,1.5872,1.5886,1.597,1.5999,1.607,1.613,1.6136,1.6208,1.6188,1.6212,1.6189,1.6242,1.6266,1.6159,1.6159,1.6158,1.6158,1.6158,1.5871,1.5902,1.5933,1.6016,1.6077,1.6119,1.6188,1.6211,1.6234,1.6257,1.629,1.629,1.6295,1.6271,1.6271,1.6271,1.6272,1.6272,1.6272,1.5914,1.5949,1.6003,1.6069,1.6108,1.6163,1.6223,1.6263,1.6313,1.6325,1.6325,1.6335,1.6242,1.6219,1.6276,1.6275,1.6275,1.6274,1.6274,1.6016,1.5997,1.6081,1.612,1.62,1.626,1.6289,1.6368,1.6404,1.6438,1.6443,1.6369,1.6372,1.6366,1.6348,1.6435,1.6435,1.6435,1.6435,1.6062,1.6066,1.6158,1.6219,1.6282,1.6317,1.6413,1.6461,1.6507,1.6532,1.6522,1.6499,1.6491,1.65,1.6491,1.6474,1.6591,1.6591,1.6592,1.6128,1.6139,1.6215,1.626,1.6324,1.638,1.6471,1.6543,1.6592,1.6599,1.6552,1.6546,1.6508,1.6494,1.6501,1.6486,1.6456,0,0]}]]